Dewpoint
50 51 51 51 52 53 54 54 55 55 55 56 58 59 60 60 60 62 61 61 61 62 64 63 62 64 63 63 62 63 63 63 64 64 63 64 63 63 62 62 61 62 62 62 61 62 61 61 61 63 63 63 62 63 62 61 62 62 61 60 61 61 61 59 56 57 61 62 63 54 51 52 48 46 42 47 44 42 46 54 57 55 51 51 54
48 48 50 51 51 52 52 53 54 54 55 55 56 56 57 59 60 60 62 61 62 62 63 63 63 62 62 63 62 63 64 63 62 64 63 63 61 62 62 61 60 60 61 60 61 61 62 61 60 62 62 62 63 60 60 61 61 61 61 60 64 62 61 60 57 58 56 60 60 56 50 51 46 46 44 49 46 39 42 54 54 52 45 47 48
48 48 49 50 51 51 51 52 52 53 53 54 54 54 56 57 58 60 60 61 62 62 63 62 62 62 63 63 61 62 62 61 63 62 62 62 61 61 63 62 61 61 60 60 59 60 62 62 62 62 63 63 62 62 62 59 58 58 58 59 59 60 61 62 60 58 56 58 59 59 53 50 50 45 43 48 45 35 37 45 48 45 40 41 47
47 47 49 49 50 50 51 51 52 52 52 52 53 54 54 56 57 59 60 62 60 61 62 62 63 63 62 62 62 62 62 62 62 62 62 61 62 62 61 62 61 61 60 60 60 60 61 62 62 62 63 63 61 62 63 61 61 60 60 62 59 61 63 63 61 60 56 56 56 58 55 50 48 44 41 45 45 35 33 39 42 40 35 33 39
46 47 48 49 49 49 50 50 51 51 51 52 52 52 52 54 55 57 60 61 60 60 62 62 61 61 61 62 62 61 61 61 62 61 63 62 62 61 62 60 61 61 61 61 61 61 61 61 62 62 62 62 62 61 61 61 60 62 60 60 58 61 63 62 62 61 58 57 57 58 61 53 47 44 41 44 44 37 33 34 38 39 34 33 32
46 47 48 48 48 49 49 49 49 50 50 50 50 50 51 52 53 55 57 59 60 60 60 62 62 62 61 61 61 61 62 61 60 60 61 62 62 62 63 62 61 61 61 61 60 62 62 61 62 61 61 62 62 62 62 61 60 60 59 57 59 60 62 62 62 62 60 58 56 55 58 56 45 43 42 43 44 40 35 34 35 37 36 37 35
46 46 47 48 47 47 48 48 48 49 49 50 50 49 49 50 51 52 55 56 58 60 61 61 62 62 62 63 62 62 63 63 63 63 61 62 62 62 63 62 62 61 61 61 60 61 61 61 61 61 61 61 61 61 62 62 61 61 60 62 62 63 61 60 60 59 59 57 53 49 50 47 47 42 41 42 43 42 41 38 38 34 36 38 38
45 46 46 47 46 46 47 47 48 48 48 48 48 49 49 48 49 51 52 54 55 54 56 60 62 63 61 61 62 63 63 62 61 62 62 63 62 61 62 61 61 61 61 61 61 61 62 62 62 61 61 62 62 62 64 64 62 62 63 62 62 60 60 61 59 60 57 56 55 48 47 47 44 41 39 40 42 41 37 37 38 38 37 40 41
44 45 45 46 46 45 46 47 47 47 46 47 47 47 47 47 48 48 49 51 53 53 54 55 58 60 61 62 62 62 62 62 62 62 62 62 61 62 61 61 62 61 61 61 62 61 61 62 60 60 62 63 59 59 58 59 62 61 61 62 62 61 61 58 58 59 59 55 55 51 44 45 43 43 42 41 39 39 40 40 40 38 36 39 38
44 44 44 44 45 44 45 46 45 46 46 46 46 47 46 47 47 47 48 48 50 51 52 54 55 56 58 60 61 62 60 58 49 45 47 55 58 59 60 62 60 61 61 61 61 61 60 61 61 63 61 59 57 53 51 51 54 62 63 63 60 61 61 60 58 56 55 53 54 53 46 44 42 47 45 43 42 44 42 42 40 37 37 38 41
43 43 43 44 44 44 44 44 44 44 45 45 46 45 45 46 46 46 47 47 48 49 51 51 52 53 54 56 59 53 49 46 40 39 39 42 51 57 60 60 61 61 60 61 61 60 61 60 61 63 62 59 59 48 47 46 47 50 53 55 59 62 60 59 59 58 54 54 56 54 49 48 46 46 45 42 45 44 43 44 41 41 38 36 35
41 42 42 43 43 43 43 43 44 44 44 43 44 44 45 45 45 45 46 46 47 48 48 49 50 51 52 53 56 52 48 41 38 39 39 39 43 51 58 61 61 60 61 60 59 59 59 60 61 62 62 62 62 60 53 46 44 44 44 45 49 52 55 59 59 57 57 55 53 52 51 49 53 53 46 50 48 45 44 45 45 41 42 38 37
40 41 41 41 42 43 42 43 43 43 43 44 44 44 44 44 44 44 45 45 46 45 46 47 48 50 50 50 51 53 47 40 38 38 38 38 39 43 53 59 62 62 60 61 58 58 59 60 60 61 60 60 61 61 61 55 45 43 44 43 42 46 49 50 49 62 59 57 54 53 53 54 52 50 53 53 54 49 47 42 46 45 43 39 38
38 39 40 40 41 41 41 41 42 42 43 43 44 43 43 43 44 44 44 44 44 44 45 45 46 46 48 48 49 51 46 41 38 38 38 38 38 40 49 55 60 61 62 61 60 60 61 60 60 61 61 61 61 61 61 60 58 57 57 58 58 51 45 46 46 44 52 60 60 58 59 56 52 54 60 59 58 51 49 46 50 48 47 44 45
37 37 38 38 39 39 39 40 41 42 42 43 43 43 43 43 43 43 43 43 43 43 44 44 44 44 45 46 46 48 47 40 38 38 37 38 37 41 51 55 59 60 61 62 60 62 61 61 60 61 61 61 61 59 62 61 60 60 60 60 58 58 59 58 59 60 59 60 61 61 60 60 60 61 60 59 60 59 59 56 52 51 51 58 55
36 37 36 36 36 37 38 39 40 41 42 42 42 42 43 43 43 43 43 43 43 43 43 43 44 44 44 44 44 44 45 40 38 38 37 37 38 49 53 54 56 59 59 61 61 61 61 62 61 62 60 62 56 52 56 60 60 59 59 60 57 53 49 42 39 40 55 62 60 59 58 53 44 50 50 58 57 59 56 55 53 51 47 52 47
33 34 35 35 36 37 38 38 38 39 41 41 41 42 43 43 43 43 42 42 42 42 42 42 42 43 44 44 43 43 43 42 38 38 37 37 40 47 51 53 55 56 59 59 62 61 58 59 60 62 62 61 53 49 49 51 59 58 58 57 54 53 50 48 41 39 39 39 39 39 39 39 39 40 40 41 54 58 58 56 54 50 49 48 45
33 33 34 35 36 37 37 37 38 38 38 39 40 41 42 43 43 43 42 42 42 42 42 42 42 43 43 43 43 44 43 42 38 37 37 37 39 46 50 52 52 55 57 59 60 61 52 47 50 54 60 60 46 47 48 54 58 57 56 55 53 51 49 48 47 45 40 40 39 39 39 40 41 41 40 42 47 54 56 56 58 57 50 46 42
33 33 34 35 36 37 38 38 38 37 37 38 39 39 40 41 42 42 42 42 42 42 41 41 42 42 42 43 44 42 42 42 39 37 37 37 40 44 50 51 51 52 56 58 60 60 52 46 43 42 52 55 43 45 45 51 58 57 55 55 53 51 49 49 48 48 48 48 48 49 49 47 51 49 48 43 45 50 54 53 54 55 53 46 45
32 33 32 34 35 36 38 38 38 38 37 38 38 38 39 39 40 40 40 40 40 41 41 41 41 42 42 42 42 42 41 41 40 37 37 37 37 43 51 52 52 50 49 47 55 50 48 46 42 37 37 37 38 39 41 42 54 56 55 54 52 50 49 49 49 49 49 49 49 49 49 48 48 48 48 48 48 49 52 52 53 52 47 48 49
32 33 32 33 34 35 36 37 38 38 37 37 37 37 37 38 38 38 38 39 39 40 40 40 41 41 42 42 42 42 42 41 40 37 37 37 37 39 47 48 49 51 50 46 44 44 43 42 42 38 36 37 37 37 38 39 40 56 56 54 52 50 46 48 49 46 50 49 48 47 46 45 45 45 44 44 45 46 47 48 50 52 50 49 43
31 30 30 30 33 34 36 37 37 38 37 37 37 36 36 37 37 38 36 37 38 38 39 39 39 39 40 41 42 42 43 42 41 39 38 37 37 37 40 43 43 48 47 46 45 43 42 40 39 37 36 36 37 38 39 40 41 49 50 41 41 42 49 49 49 48 47 46 44 43 44 42 42 43 43 43 43 45 46 46 46 47 47 49 50
29 31 31 31 32 33 35 37 37 37 36 36 35 36 35 35 36 37 37 37 37 37 38 38 38 38 38 39 40 41 41 42 40 41 39 38 37 37 36 38 38 43 43 41 42 42 42 41 40 37 36 36 36 36 37 38 40 41 38 39 40 40 43 47 46 46 45 44 44 43 41 41 41 40 40 40 42 43 44 45 46 47 47 47 49
29 31 30 31 32 32 33 35 36 36 36 35 35 36 35 35 33 35 36 35 35 35 35 37 37 37 37 37 39 40 40 40 40 39 40 38 38 38 37 36 37 40 41 40 40 40 40 40 38 36 36 37 37 36 36 36 37 36 36 37 38 39 46 46 45 46 43 41 41 40 40 39 39 40 40 42 42 44 44 44 43 43 45 46 47
31 31 30 29 31 30 33 34 35 35 34 34 33 33 35 34 32 33 34 34 34 34 34 35 36 36 37 38 38 39 40 39 39 39 39 39 38 38 38 38 37 37 40 40 40 40 37 36 37 37 37 38 37 38 38 37 36 37 37 38 41 42 44 42 42 43 41 39 39 40 39 40 41 40 41 41 42 42 42 43 43 42 42 42 43
30 30 27 28 28 26 30 31 33 35 35 34 34 32 34 34 33 32 31 32 32 33 33 33 35 36 36 37 37 38 39 39 39 39 40 40 39 39 38 38 39 39 40 40 37 37 37 37 37 37 38 39 41 40 40 40 38 38 38 40 43 41 40 38 38 38 37 36 36 36 36 36 37 40 41 41 40 38 39 40 40 40 41 41 40
31 30 29 28 30 28 31 31 31 34 35 34 33 33 31 32 35 33 32 32 32 31 32 32 34 35 37 36 37 37 37 38 38 39 39 41 41 41 41 42 40 40 42 42 41 42 40 40 39 37 37 37 37 37 38 39 40 41 42 43 43 42 42 41 40 38 37 36 36 36 36 37 38 37 38 37 38 39 41 42 41 40 41 39 38
29 29 29 29 28 28 29 29 30 30 32 35 33 33 32 33 33 35 33 33 32 32 32 32 33 36 40 37 36 36 37 37 38 38 39 39 41 41 41 41 41 41 41 42 42 42 42 38 39 40 40 40 40 40 40 39 39 38 41 41 41 41 40 39 39 42 41 40 40 39 38 38 36 36 36 37 37 38 38 38 38 39 39 39 38
29 30 30 27 28 28 29 29 28 30 29 34 35 36 35 35 34 36 38 36 36 36 33 33 33 35 37 39 37 37 37 37 38 35 36 35 36 39 40 40 40 40 38 36 41 40 39 39 38 38 38 34 35 37 37 38 36 38 37 39 39 40 39 39 38 39 39 37 36 36 36 36 36 36 36 36 36 36 38 38 38 39 39 39 37
28 28 28 27 27 28 30 27 28 28 28 28 37 37 34 35 37 37 36 35 34 35 35 36 36 33 33 36 39 36 37 38 35 34 35 35 35 35 35 35 35 38 36 35 38 37 36 35 36 35 35 35 34 34 34 35 35 34 35 35 37 37 38 37 37 37 36 37 38 37 36 35 36 36 36 35 36 36 36 36 39 39 38 37 36
27 27 28 28 27 29 29 29 28 27 27 27 29 28 38 36 34 35 35 35 35 34 34 34 35 35 36 32 36 35 35 34 34 35 35 35 35 35 35 35 35 35 35 35 35 34 34 33 34 34 34 35 33 33 33 33 33 33 34 34 35 35 34 36 37 34 34 34 34 35 35 36 35 35 34 34 35 35 36 36 36 37 35 36 35
27 26 26 29 30 29 29 30 30 29 27 28 27 28 27 29 39 34 34 35 35 35 34 34 34 34 35 35 35 33 34 34 34 35 35 35 35 35 35 35 35 35 35 35 34 34 35 34 34 34 34 33 33 33 34 34 34 34 34 33 33 34 34 34 36 38 35 35 33 33 33 34 35 34 34 34 33 34 34 34 34 33 34 35 34
32 28 29 31 30 29 29 30 30 29 30 29 30 27 26 26 26 30 35 34 34 35 35 35 35 34 34 34 35 34 34 34 34 35 35 35 35 35 35 36 36 36 36 35 35 35 36 36 36 36 35 34 34 34 35 35 35 35 35 34 34 34 36 36 34 37 34 35 33 33 33 33 32 32 32 32 33 33 33 34 34 34 33 32 32
33 31 31 31 31 32 32 32 31 29 29 29 27 25 25 29 27 28 28 30 37 37 34 35 35 34 34 34 34 34 34 34 34 34 34 34 34 34 34 36 36 37 38 39 37 36 38 38 37 37 36 36 36 35 35 35 35 35 35 36 37 38 38 39 39 36 33 34 33 32 33 33 32 32 32 32 33 33 34 32 33 33 33 33 31
30 32 31 32 30 30 32 31 33 30 29 30 28 27 27 27 27 28 27 28 27 28 29 35 34 34 33 32 33 33 33 34 34 34 34 34 34 35 35 40 37 39 40 38 37 37 37 38 38 38 38 37 37 36 37 37 37 36 36 37 37 38 38 36 36 39 37 34 33 32 32 32 32 31 30 30 29 30 31 32 33 32 31 29 29
30 26 32 32 32 30 31 31 34 31 30 31 28 28 28 27 26 26 26 27 27 27 28 29 29 35 33 32 33 33 33 33 34 34 34 34 35 34 36 36 36 39 38 37 36 36 36 36 36 35 36 36 36 36 37 37 38 38 39 37 34 36 37 35 32 33 33 32 31 32 31 31 31 30 31 31 31 30 30 30 29 30 29 28 29
26 31 32 31 33 35 33 32 32 29 30 29 28 30 30 27 27 26 27 26 28 27 28 29 30 32 31 30 33 33 33 33 33 34 34 34 34 35 36 37 37 37 37 37 36 35 35 35 35 35 35 35 34 34 34 35 35 33 33 34 34 34 32 32 31 31 30 30 31 31 31 30 30 29 27 27 27 27 27 27 27 26 27 27 28
30 30 31 30 34 34 32 30 26 29 29 28 31 30 30 28 27 27 27 27 27 28 29 28 32 31 28 27 34 33 32 32 32 33 34 34 34 35 36 36 36 35 35 36 35 35 34 34 34 33 33 34 34 33 32 32 31 31 31 30 31 31 31 30 29 30 29 28 27 27 27 27 27 26 26 25 26 26 26 26 25 24 24 24 25
30 32 32 32 31 31 29 28 27 30 30 31 30 29 28 28 28 28 27 27 27 28 29 28 28 31 30 30 31 34 33 32 31 30 32 33 34 35 35 36 35 35 35 34 33 32 32 32 32 33 33 32 32 30 30 31 29 29 28 28 29 30 29 27 28 26 26 26 25 25 25 25 24 24 25 25 25 25 25 26 25 25 24 24 24
28 28 32 32 28 27 27 27 27 31 30 30 30 29 28 28 29 29 27 27 28 27 28 28 27 31 31 31 31 33 32 31 31 32 31 33 33 34 34 35 35 35 35 34 32 31 33 31 32 32 32 31 31 30 29 29 30 28 28 27 26 26 26 26 25 25 25 25 25 24 24 25 24 24 24 23 23 24 23 23 22 23 24 25 25
26 29 29 28 28 26 26 25 29 28 30 28 30 30 31 28 28 28 28 28 29 27 28 29 28 31 32 32 33 33 32 31 31 32 32 31 32 33 32 33 33 34 35 33 31 30 31 31 31 31 30 30 30 31 29 28 28 27 28 25 25 25 25 27 26 26 26 26 25 25 26 25 24 23 23 24 26 24 23 23 23 23 24 24 25
22 24 26 26 27 21 23 24 25 27 26 28 28 27 28 28 28 28 29 28 27 27 28 29 29 29 32 32 33 33 33 30 30 31 31 31 31 32 32 32 32 33 35 35 33 31 30 30 31 30 30 30 30 29 29 28 27 27 26 25 24 25 25 25 26 26 26 25 26 25 24 23 22 23 24 26 23 23 23 23 22 23 24 23 23
26 22 20 23 24 25 22 23 21 23 24 26 28 28 29 29 29 30 29 27 27 27 28 30 30 29 30 31 31 32 31 29 29 30 30 31 31 33 33 33 33 34 35 35 33 32 31 31 31 31 30 30 29 28 27 26 25 25 25 25 24 24 25 25 25 25 25 24 25 26 26 25 24 22 23 23 23 22 23 24 23 23 23 23 22
26 22 20 18 19 22 23 23 23 22 23 25 27 27 27 28 28 29 28 30 29 28 28 30 30 30 29 32 33 31 29 29 28 28 29 30 31 32 33 34 34 34 34 33 33 33 32 32 31 31 32 30 30 31 29 29 27 26 25 25 24 24 24 24 24 24 24 24 24 24 21 22 22 20 21 22 23 23 22 23 23 22 22 23 22
25 23 21 17 16 19 21 23 23 22 23 23 27 29 28 28 27 27 28 28 28 29 28 29 30 31 29 29 28 28 29 29 29 29 28 28 29 30 32 33 33 33 33 33 33 35 33 32 32 31 31 31 31 31 31 30 31 30 27 25 24 23 24 25 25 25 27 29 27 22 23 23 22 22 22 22 22 22 22 23 23 23 22 23 24
26 25 22 20 17 18 22 23 23 21 21 24 26 27 26 25 26 27 27 28 27 29 29 30 30 30 28 29 29 29 28 29 30 30 30 29 28 29 29 31 32 33 32 32 32 32 32 32 30 30 30 30 31 31 31 31 31 30 30 29 28 27 27 27 27 26 26 28 27 26 22 22 21 20 20 20 21 20 20 21 23 23 23 23 23
28 23 21 20 17 17 20 22 21 20 22 19 24 23 26 26 27 29 27 27 26 28 28 29 30 31 30 29 29 29 29 29 30 30 31 31 30 29 29 30 31 32 32 32 32 31 31 31 31 31 31 31 31 32 32 30 29 27 29 28 28 28 29 27 28 29 28 29 28 25 25 24 21 23 20 19 19 19 18 20 21 22 22 22 22
22 19 18 18 17 16 19 20 20 22 19 20 21 22 23 24 26 26 27 26 27 26 27 28 29 30 29 31 31 30 29 30 29 30 30 32 31 30 29 29 28 30 31 31 31 31 31 31 31 31 31 31 31 31 32 31 29 29 26 28 28 27 30 29 28 28 29 29 27 28 26 24 22 21 19 18 18 14 14 15 20 23 22 20 21
20 19 18 17 18 19 20 19 20 19 20 20 20 19 20 22 23 25 26 25 25 26 26 27 28 29 29 30 30 29 28 29 29 29 29 29 31 32 30 30 29 29 30 31 31 31 31 31 31 30 30 30 30 30 31 31 29 29 29 27 26 28 28 28 28 25 29 30 26 23 23 24 23 21 19 18 16 14 13 15 19 21 20 21 19
22 21 21 20 20 21 21 20 20 20 21 21 19 20 20 20 21 23 24 25 25 26 27 27 27 27 28 29 27 28 29 29 29 29 29 29 31 31 30 30 30 30 29 26 27 31 31 31 31 31 30 31 30 30 29 29 29 28 27 24 28 29 29 29 29 30 29 27 30 27 25 24 23 21 18 20 21 17 14 14 19 22 20 17 21
23 22 22 22 22 21 20 21 20 20 21 20 22 21 20 21 22 23 23 23 26 26 26 27 27 27 28 28 28 29 31 30 30 30 30 31 28 29 30 29 30 30 28 25 25 25 26 25 26 27 27 25 25 27 27 26 28 27 27 28 28 28 30 29 29 31 30 30 29 27 24 23 23 20 20 20 20 18 14 18 20 22 22 20 21